Location: Avully
(45.9633°N, 6.0228°E)
Time: 14:52:46
(UTC+00:00)

Meteor 1-24 Rocket - Pass Details

Date: 23 May 2024
Orbit: 788 x 927 km, 81.3° (Epoch: 18 June)

Event Time Altitude Azimuth Distance (km) Brightness Sun altitude
Exits shadow 02:02:47 14° 178° (S) 2,329 5.5 -15.2°
Maximum altitude 02:07:58 71° 97° (E) 981 4.1 -14.7°
Drops below altitude 10° 02:13:57 10° 15° (NNE) 2,621 7.4 -14.0°
Sets 02:16:25 0° 13° (NNE) 3,555 8.2 -13.8°
